SCP
0 0 0 0 0 0 0 0 0 0 0 0 0 0 0 0 0 0 0 0 0 0 0 0 0 0 0 0 0 0 0 0 0 0 0 0 0 0 0 0 0 0 0
0 0 0 0 0 0 0 0 0 0 0 0 0 0 0 0 0 0 0 0 0 0 0 0 0 0 0 0 0 0 0 0 0 0 0 0 0 0 0 0 0 0 0
0 0 0 0 0 0 0 0 0 0 0 0 0 0 0 0 0 0 0 0 0 0 0 0 0 0 0 0 0 0 0 0 0 0 0 0 0 0 0 0 0 0 0
0 0 0 0 0 0 0 0 0 0 0 0 0 0 0 0 0 0 0 0 0 0 0 0 0 0 0 0 0 0 0 0 0 0 0 0 0 0 0 0 0 0 0
0 0 0 0 0 0 0 0 0 0 0 0 0 0 0 0 0 0 0 0 0 0 0 0 0 0 0 0 0 0 0 0 0 0 0 0 0 0 0 0 0 0 0
0 0 0 0 0 0 0 0 0 0 0 0 0 0 0 0 0 0 0 0 0 0 0 0 0 0 0 0 0 0 0 0 0 0 0 0 0 0 0 0 0 0 -0
0 0 0 0 0 0 0 0 0 0 0 0 0 0 0 0 0 0 0 0 0 0 0 0 0 0 0 0 0 0 0 0 0 0 0 0 0 0 0 0 0 0 0
0 0 0 0 0 0 0 0 0 0 0 0 0 0 0 0 0 0 0 0 0 0 0 0 0 0 0 0 0 0 0 0 0 0 0 0 0 0 0 0 0 0 0
0 0 0 0 0 0 0 0 0 0 0 0 0 0 0 0 0 0 0 0 0 0 0 0 0 0 0 0 0 0 0 0 0 0 0 0 0 0 0 0 0 0 0
0 0 0 0 0 0 0 0 0 0 0 0 0 0 0 0 0 0 0 0 0 0 0 0 0 0 0 0 0 0 0 0 0 0 0 0 0 0 0 0 0 0 0
0 0 0 0 0 0 0 0 0 0 0 0 0 0 0 0 0 0 0 0 0 0 0 0 0 0 0 0 0 0 0 0 0 0 0 0 0 0 0 0 0 0 0
0 0 0 0 0 0 0 0 0 0 0 0 0 0 0 0 0 0 0 0 0 0 0 0 0 0 0 0 0 0 0 0 0 0 0 0 0 0 0 0 0 0 0
0 0 0 0 0 0 0 0 0 0 0 0 0 0 0 0 0 0 0 0 0 0 0 0 0 0 0 0 0 0 0 0 0 0 0 0 0 0 0 0 0 0 0
0 0 0 0 0 0 0 0 0 0 0 0 0 0 0 0 0 0 0 0 0 0 0 0 0 0 0 0 0 0 0 0 0 0 0 0 0 0 0 0 0 0 0
0 0 0 0 0 0 0 0 0 0 0 0 0 0 0 0 0 0 0 0 0 0 0 0 0 0 0 0 0 0 0 0 0 0 0 0 0 0 0 0 0 0 0
0 0 0 0 0 0 0 0 0 0 0 0 0 0 0 0 0 0 0 0 0 0 0 0 0 0 0 0 0 0 0 0 0 0 0 0 0 0 0 0 0 0 0
0 0 0 0 0 0 0 0 0 0 0 0 0 0 0 0 0 0 0 0 0 0 0 0 0 0 0 0 0 0 0 0 0 0 0 0 0 0 0 0 0 0 0
0 0 0 0 0 0 0 0 0 0 0 0 0 0 0 0 0 0 0 0 0 0 0 0 0 0 0 0 0 0 0 0 0 0 0 0 0 0 0 0 0 0 0
0 0 0 0 0 0 0 0 0 0 0 0 0 0 0 0 0 0 0 0 0 0 0 0 0 0 0 0 0 0 0 0 0 0 0 0 0 0 0 0 0 0 0
0 0 0 0 0 0 0 0 0 0 0 0 0 0 0 0 0 0 0 0 0 0 0 0 0 0 0 0 0 0 0 0 0 0 0 0 0 0 0 0 0 0 0
0 0 0 0 0 0 0 0 0 0 0 0 0 0 0 0 0 0 0 0 0 0 0 0 0 0 0 0 0 0 0 0 0 0 0 0 0 0 0 0 0 0 0
0 0 0 0 0 0 0 0 0 0 0 0 0 0 0 0 0 0 0 0 0 0 0 0 0 0 0 0 0 0 0 0 0 0 0 0 0 0 0 0 0 0 0
0 0 0 0 0 0 0 0 0 0 0 0 0 0 0 0 0 0 0 0 0 0 0 0 0 0 0 0 0 0 0 0 0 0 0 0 0 0 0 0 0 0 0
0 0 0 0 0 0 0 0 0 0 0 0 0 0 0 0 0 0 0 0 0 0 0 0 0 0 0 0 0 0 0 0 0 0 0 0 0 0 0 0 0 0 0
0 0 0 0 0 0 0 0 0 0 0 0 0 0 0 0 0 0 0 0 0 0 0 0 0 0 0 0 0 0 0 0 0 0 0 0 0 0 0 0 0 0 0
0 0 0 0 0 0 0 0 0 0 0 0 0 0 0 0 0 0 0 0 0 0 0 0 0 0 0 0 0 0 0 0 0 0 0 0 0 0 0 0 0 0 0
Wind_Speed_500mb
27 27 28 28 29 27 26 25 24 26 25 26 27 24 21 20 20 20 20 21 23 24 25 25 27 29 30 31 32 32 31 32 37 41 40 44 49 55 57 56 58 58 60
27 27 27 26 25 25 24 23 23 20 18 16 16 15 14 14 15 16 18 18 18 18 19 19 21 23 24 26 26 27 27 29 32 36 37 39 40 46 50 54 57 60 62
30 29 29 27 25 24 22 21 19 16 13 12 11 10 8 8 9 10 12 13 14 15 16 17 18 19 20 23 23 24 23 25 27 31 36 38 42 50 51 52 52 55 56
27 25 25 25 22 21 20 17 15 13 10 8 6 4 4 5 6 9 10 12 14 15 16 17 19 20 21 24 25 28 29 30 31 32 35 38 42 45 49 56 57 57 59
23 23 23 22 19 17 15 13 10 8 4 1 2 4 4 5 8 9 10 13 15 17 19 19 21 24 27 27 27 27 27 27 27 27 29 32 38 45 50 54 59 65 64
21 20 20 17 15 13 10 8 5 2 2 5 7 9 10 10 11 13 14 16 18 18 21 21 21 21 24 25 25 23 21 21 21 22 24 29 35 42 47 54 59 67 72
13 13 11 9 7 5 3 2 4 5 8 12 15 16 18 17 17 18 18 18 19 17 17 18 19 19 19 20 19 17 17 17 19 22 25 31 36 41 46 50 53 56 60
9 8 8 7 4 2 1 3 6 8 10 12 15 17 17 18 17 18 19 19 18 17 15 15 16 17 18 16 15 15 16 17 20 22 26 29 33 38 43 47 52 58 61
9 7 4 2 2 2 3 6 8 11 12 14 14 16 16 16 15 14 13 14 14 13 10 10 11 14 18 17 16 18 18 19 20 23 27 29 32 34 40 48 52 62 73
5 3 2 3 5 6 7 9 11 13 15 15 15 15 15 15 15 14 13 14 14 12 12 11 12 16 22 20 19 21 23 26 28 27 28 31 34 35 38 43 51 58 62
8 6 7 9 10 11 11 12 13 13 14 14 13 12 11 10 11 11 12 12 13 15 15 16 17 22 25 24 25 26 30 35 33 36 35 36 36 39 43 45 46 51 56
13 13 14 15 16 17 18 17 17 16 14 13 13 12 11 11 12 13 15 17 17 17 18 19 21 25 28 28 29 32 36 37 39 40 42 41 42 42 44 47 47 48 50
22 22 22 22 20 20 19 18 17 15 14 13 13 12 12 13 15 17 19 21 24 24 24 27 29 29 32 31 31 35 38 39 42 42 42 43 45 47 49 52 53 57 62
27 26 24 22 22 21 20 18 17 15 14 14 13 14 14 15 17 19 22 25 28 28 29 31 32 32 32 34 34 35 37 39 43 44 45 45 46 48 50 54 62 67 74
26 24 23 23 21 20 18 16 15 14 13 12 12 12 12 13 17 20 24 27 29 31 33 32 30 30 30 33 35 35 37 39 41 44 45 48 48 51 53 56 61 69 73
27 26 24 22 20 19 16 15 14 12 10 8 9 10 12 16 19 23 27 30 33 34 36 35 33 36 37 38 39 37 36 39 40 43 43 46 50 52 56 59 63 68 75
28 25 23 22 20 19 17 15 13 11 9 9 9 12 14 18 22 26 31 34 33 33 33 34 36 37 39 40 41 42 42 40 41 42 44 44 47 51 57 61 65 70 77
27 25 25 23 22 20 19 17 15 13 11 10 12 14 17 21 25 30 33 34 28 29 33 34 35 37 38 40 41 43 43 43 42 43 44 43 45 52 58 61 65 72 77
29 29 28 26 24 23 21 19 17 14 12 12 14 16 18 22 25 28 29 30 29 28 32 35 37 39 41 43 45 46 47 47 45 45 45 45 46 52 56 60 67 72 75
33 31 29 27 25 24 23 22 20 18 17 16 16 19 22 23 24 28 30 30 31 33 35 39 40 42 44 46 47 48 48 49 47 46 46 46 47 51 56 61 66 74 75
33 30 29 29 28 28 28 26 24 23 21 20 20 24 26 28 26 28 29 31 35 37 39 42 43 43 44 47 49 50 51 51 50 47 45 46 48 52 54 60 68 72 75
32 33 36 33 33 32 30 30 29 27 27 27 25 26 29 32 34 35 36 37 39 40 41 45 46 47 47 50 52 53 54 54 51 49 47 48 49 52 56 61 68 72 75
39 37 36 36 36 36 36 35 35 36 35 35 35 34 35 37 39 41 42 44 45 47 47 50 52 52 50 52 54 55 56 54 53 52 51 50 50 51 55 62 68 72 73
37 39 39 39 40 41 42 41 42 43 43 43 43 44 44 45 47 48 49 50 52 54 54 54 56 56 54 55 55 56 57 56 56 54 51 52 51 50 56 60 66 68 74
40 41 43 44 45 46 47 49 50 50 51 52 52 53 53 54 56 56 56 56 57 60 61 61 61 60 58 57 57 56 57 58 57 55 52 51 52 52 55 59 64 71 73
43 46 48 49 51 52 54 56 56 57 59 60 62 63 64 65 65 66 65 66 65 65 66 68 65 63 61 59 56 56 56 57 56 51 50 51 50 51 51 58 67 74 73
Wind_Direction_500mb
172 180 192 199 207 210 208 212 211 217 222 227 227 224 224 227 233 242 249 252 253 255 259 258 261 264 267 270 273 274 275 274 273 275 276 275 277 282 287 293 300 305 308
152 164 170 176 179 192 190 187 186 185 186 192 201 209 219 227 233 239 244 249 252 257 264 267 269 273 275 275 277 279 280 281 285 290 294 296 295 291 296 301 305 308 310
130 136 138 139 143 146 148 151 156 161 168 177 192 200 208 223 236 246 253 260 266 271 273 275 278 281 282 282 284 285 287 289 292 297 300 303 304 306 308 310 313 313 317
125 128 131 131 133 134 135 138 141 142 150 161 183 206 220 249 266 273 280 282 285 286 288 291 293 293 294 297 301 303 304 304 304 305 306 311 314 319 323 325 325 327 329
123 123 120 118 118 116 118 120 120 122 131 194 267 281 292 293 284 275 282 290 292 296 298 301 302 301 301 302 305 308 310 312 314 315 317 323 327 331 338 340 338 338 340
123 122 119 119 116 118 120 118 118 127 267 288 290 298 303 308 306 298 296 293 297 298 298 302 302 307 310 314 315 321 322 328 330 336 340 341 342 341 342 344 343 343 343
125 122 120 120 122 119 96 36 344 328 320 313 313 315 317 323 322 314 309 309 304 303 304 307 306 310 313 319 322 332 341 350 352 350 351 348 346 342 339 340 341 339 338
162 152 143 139 138 117 4 316 305 303 303 304 305 307 313 317 321 319 317 315 311 311 310 307 302 312 321 331 334 341 342 342 345 345 345 344 343 340 336 336 335 332 331
173 167 166 195 234 268 289 297 300 301 300 300 301 301 301 300 301 300 298 301 308 313 318 320 314 316 323 329 330 330 330 329 334 335 337 336 336 335 333 333 334 335 334
208 222 260 291 299 298 296 294 292 290 291 292 292 293 298 304 312 319 315 312 316 320 321 319 312 305 311 315 317 319 318 322 327 330 332 332 332 333 333 335 334 333 334
232 257 274 283 290 294 295 293 290 288 287 287 289 293 297 301 306 315 321 323 321 318 313 310 311 307 311 311 310 315 316 319 325 325 327 326 327 332 334 335 332 328 326
243 251 258 264 268 270 269 269 269 271 274 278 280 286 293 300 305 310 312 311 312 311 305 305 303 298 305 309 310 311 312 313 315 317 320 322 325 328 331 330 328 326 322
238 241 244 246 249 253 253 255 255 257 260 266 275 285 291 296 303 305 307 310 316 317 313 306 310 311 307 306 304 302 303 307 308 310 314 318 323 327 329 327 327 329 326
237 239 241 245 245 247 247 247 248 252 254 260 271 280 289 297 304 308 311 313 316 317 310 308 306 304 302 301 299 301 304 305 305 309 311 315 320 323 327 329 331 332 329
242 242 241 238 237 234 233 234 238 245 254 262 277 292 304 312 314 317 315 313 312 312 308 312 312 311 309 309 308 308 306 304 304 305 309 312 316 320 326 330 332 332 329
240 239 237 234 228 225 228 236 239 236 244 261 285 301 312 314 316 314 314 313 313 313 312 318 317 316 316 315 314 312 308 303 303 303 307 309 313 318 323 329 331 328 328
239 236 229 222 220 223 223 217 217 222 238 258 279 296 305 308 313 317 316 313 314 311 312 312 315 315 316 316 314 314 312 307 303 303 302 305 310 316 321 324 327 329 328
236 229 222 219 221 217 213 213 215 218 232 259 283 297 308 317 319 317 315 313 314 310 310 312 314 315 316 315 313 313 313 311 305 302 301 304 308 312 314 321 326 327 327
230 224 221 218 215 215 219 221 222 228 243 262 282 295 307 313 316 317 319 317 316 313 310 312 314 317 319 318 318 315 314 312 308 305 304 303 301 304 312 319 323 325 325
224 221 223 219 216 221 223 226 230 238 246 261 278 290 301 313 323 325 323 321 318 315 314 315 317 317 318 316 315 314 311 310 310 304 299 297 299 303 310 316 321 323 324
223 223 221 219 223 226 228 234 242 251 260 269 276 285 296 304 311 317 322 322 320 318 316 313 312 313 313 313 312 312 312 311 310 304 298 295 297 303 309 314 319 322 322
222 220 220 224 227 231 235 241 249 257 263 268 272 278 287 296 305 311 316 318 317 317 316 313 314 314 314 312 311 310 311 311 309 304 298 297 297 303 310 314 319 321 322
222 223 226 230 234 237 242 248 254 259 263 269 275 281 286 292 298 303 307 308 309 312 315 316 316 316 313 310 309 308 307 310 309 305 300 297 297 303 310 314 319 320 321
226 229 235 238 241 245 249 254 259 263 269 273 276 281 286 292 296 298 301 304 306 308 309 310 310 312 312 309 307 307 306 308 306 305 299 295 298 305 310 312 317 319 321
235 239 243 247 250 254 257 259 263 267 271 275 279 282 286 288 290 293 296 299 301 303 305 305 305 306 308 307 306 306 304 304 304 303 298 294 296 303 307 312 319 320 322
247 249 251 254 256 260 263 267 270 272 274 278 280 282 284 286 289 291 293 295 297 298 298 300 301 301 302 303 303 300 299 300 300 296 289 287 290 300 308 317 322 322 321
Wind_Speed_850mb
27 27 28 28 29 27 26 25 24 26 25 26 27 24 21 20 20 20 20 21 23 24 25 25 27 29 30 31 32 32 31 32 37 41 40 44 49 55 57 56 58 58 60
27 27 27 26 25 25 24 23 23 20 18 16 16 15 14 14 15 16 18 18 18 18 19 19 21 23 24 26 26 27 27 29 32 36 37 39 40 46 50 54 57 60 62
30 29 29 27 25 24 22 21 19 16 13 12 11 10 8 8 9 10 12 13 14 15 16 17 18 19 20 23 23 24 23 25 27 31 36 38 42 50 51 52 52 55 56
27 25 25 25 22 21 20 17 15 13 10 8 6 4 4 5 6 9 10 12 14 15 16 17 19 20 21 24 25 28 29 30 31 32 35 38 42 45 49 56 57 57 59
23 23 23 22 19 17 15 13 10 8 4 1 2 4 4 5 8 9 10 13 15 17 19 19 21 24 27 27 27 27 27 27 27 27 29 32 38 45 50 54 59 65 64
21 20 20 17 15 13 10 8 5 2 2 5 7 9 10 10 11 13 14 16 18 18 21 21 21 21 24 25 25 23 21 21 21 22 24 29 35 42 47 54 59 67 72
13 13 11 9 7 5 3 2 4 5 8 12 15 16 18 17 17 18 18 18 19 17 17 18 19 19 19 20 19 17 17 17 19 22 25 31 36 41 46 50 53 56 60
9 8 8 7 4 2 1 3 6 8 10 12 15 17 17 18 17 18 19 19 18 17 15 15 16 17 18 16 15 15 16 17 20 22 26 29 33 38 43 47 52 58 61
9 7 4 2 2 2 3 6 8 11 12 14 14 16 16 16 15 14 13 14 14 13 10 10 11 14 18 17 16 18 18 19 20 23 27 29 32 34 40 48 52 62 73
5 3 2 3 5 6 7 9 11 13 15 15 15 15 15 15 15 14 13 14 14 12 12 11 12 16 22 20 19 21 23 26 28 27 28 31 34 35 38 43 51 58 62
8 6 7 9 10 11 11 12 13 13 14 14 13 12 11 10 11 11 12 12 13 15 15 16 17 22 25 24 25 26 30 35 33 36 35 36 36 39 43 45 46 51 56
13 13 14 15 16 17 18 17 17 16 14 13 13 12 11 11 12 13 15 17 17 17 18 19 21 25 28 28 29 32 36 37 39 40 42 41 42 42 44 47 47 48 50
22 22 22 22 20 20 19 18 17 15 14 13 13 12 12 13 15 17 19 21 24 24 24 27 29 29 32 31 31 35 38 39 42 42 42 43 45 47 49 52 53 57 62
27 26 24 22 22 21 20 18 17 15 14 14 13 14 14 15 17 19 22 25 28 28 29 31 32 32 32 34 34 35 37 39 43 44 45 45 46 48 50 54 62 67 74
26 24 23 23 21 20 18 16 15 14 13 12 12 12 12 13 17 20 24 27 29 31 33 32 30 30 30 33 35 35 37 39 41 44 45 48 48 51 53 56 61 69 73
27 26 24 22 20 19 16 15 14 12 10 8 9 10 12 16 19 23 27 30 33 34 36 35 33 36 37 38 39 37 36 39 40 43 43 46 50 52 56 59 63 68 75
28 25 23 22 20 19 17 15 13 11 9 9 9 12 14 18 22 26 31 34 33 33 33 34 36 37 39 40 41 42 42 40 41 42 44 44 47 51 57 61 65 70 77
27 25 25 23 22 20 19 17 15 13 11 10 12 14 17 21 25 30 33 34 28 29 33 34 35 37 38 40 41 43 43 43 42 43 44 43 45 52 58 61 65 72 77
29 29 28 26 24 23 21 19 17 14 12 12 14 16 18 22 25 28 29 30 29 28 32 35 37 39 41 43 45 46 47 47 45 45 45 45 46 52 56 60 67 72 75
33 31 29 27 25 24 23 22 20 18 17 16 16 19 22 23 24 28 30 30 31 33 35 39 40 42 44 46 47 48 48 49 47 46 46 46 47 51 56 61 66 74 75
33 30 29 29 28 28 28 26 24 23 21 20 20 24 26 28 26 28 29 31 35 37 39 42 43 43 44 47 49 50 51 51 50 47 45 46 48 52 54 60 68 72 75
32 33 36 33 33 32 30 30 29 27 27 27 25 26 29 32 34 35 36 37 39 40 41 45 46 47 47 50 52 53 54 54 51 49 47 48 49 52 56 61 68 72 75
39 37 36 36 36 36 36 35 35 36 35 35 35 34 35 37 39 41 42 44 45 47 47 50 52 52 50 52 54 55 56 54 53 52 51 50 50 51 55 62 68 72 73
37 39 39 39 40 41 42 41 42 43 43 43 43 44 44 45 47 48 49 50 52 54 54 54 56 56 54 55 55 56 57 56 56 54 51 52 51 50 56 60 66 68 74
40 41 43 44 45 46 47 49 50 50 51 52 52 53 53 54 56 56 56 56 57 60 61 61 61 60 58 57 57 56 57 58 57 55 52 51 52 52 55 59 64 71 73
43 46 48 49 51 52 54 56 56 57 59 60 62 63 64 65 65 66 65 66 65 65 66 68 65 63 61 59 56 56 56 57 56 51 50 51 50 51 51 58 67 74 73
Wind_Direction_850mb
172 180 192 199 207 210 208 212 211 217 222 227 227 224 224 227 233 242 249 252 253 255 259 258 261 264 267 270 273 274 275 274 273 275 276 275 277 282 287 293 300 305 308
152 164 170 176 179 192 190 187 186 185 186 192 201 209 219 227 233 239 244 249 252 257 264 267 269 273 275 275 277 279 280 281 285 290 294 296 295 291 296 301 305 308 310
130 136 138 139 143 146 148 151 156 161 168 177 192 200 208 223 236 246 253 260 266 271 273 275 278 281 282 282 284 285 287 289 292 297 300 303 304 306 308 310 313 313 317
125 128 131 131 133 134 135 138 141 142 150 161 183 206 220 249 266 273 280 282 285 286 288 291 293 293 294 297 301 303 304 304 304 305 306 311 314 319 323 325 325 327 329
123 123 120 118 118 116 118 120 120 122 131 194 267 281 292 293 284 275 282 290 292 296 298 301 302 301 301 302 305 308 310 312 314 315 317 323 327 331 338 340 338 338 340
123 122 119 119 116 118 120 118 118 127 267 288 290 298 303 308 306 298 296 293 297 298 298 302 302 307 310 314 315 321 322 328 330 336 340 341 342 341 342 344 343 343 343
125 122 120 120 122 119 96 36 344 328 320 313 313 315 317 323 322 314 309 309 304 303 304 307 306 310 313 319 322 332 341 350 352 350 351 348 346 342 339 340 341 339 338
162 152 143 139 138 117 4 316 305 303 303 304 305 307 313 317 321 319 317 315 311 311 310 307 302 312 321 331 334 341 342 342 345 345 345 344 343 340 336 336 335 332 331
173 167 166 195 234 268 289 297 300 301 300 300 301 301 301 300 301 300 298 301 308 313 318 320 314 316 323 329 330 330 330 329 334 335 337 336 336 335 333 333 334 335 334
208 222 260 291 299 298 296 294 292 290 291 292 292 293 298 304 312 319 315 312 316 320 321 319 312 305 311 315 317 319 318 322 327 330 332 332 332 333 333 335 334 333 334
232 257 274 283 290 294 295 293 290 288 287 287 289 293 297 301 306 315 321 323 321 318 313 310 311 307 311 311 310 315 316 319 325 325 327 326 327 332 334 335 332 328 326
243 251 258 264 268 270 269 269 269 271 274 278 280 286 293 300 305 310 312 311 312 311 305 305 303 298 305 309 310 311 312 313 315 317 320 322 325 328 331 330 328 326 322
238 241 244 246 249 253 253 255 255 257 260 266 275 285 291 296 303 305 307 310 316 317 313 306 310 311 307 306 304 302 303 307 308 310 314 318 323 327 329 327 327 329 326
237 239 241 245 245 247 247 247 248 252 254 260 271 280 289 297 304 308 311 313 316 317 310 308 306 304 302 301 299 301 304 305 305 309 311 315 320 323 327 329 331 332 329
242 242 241 238 237 234 233 234 238 245 254 262 277 292 304 312 314 317 315 313 312 312 308 312 312 311 309 309 308 308 306 304 304 305 309 312 316 320 326 330 332 332 329
240 239 237 234 228 225 228 236 239 236 244 261 285 301 312 314 316 314 314 313 313 313 312 318 317 316 316 315 314 312 308 303 303 303 307 309 313 318 323 329 331 328 328
239 236 229 222 220 223 223 217 217 222 238 258 279 296 305 308 313 317 316 313 314 311 312 312 315 315 316 316 314 314 312 307 303 303 302 305 310 316 321 324 327 329 328
236 229 222 219 221 217 213 213 215 218 232 259 283 297 308 317 319 317 315 313 314 310 310 312 314 315 316 315 313 313 313 311 305 302 301 304 308 312 314 321 326 327 327
230 224 221 218 215 215 219 221 222 228 243 262 282 295 307 313 316 317 319 317 316 313 310 312 314 317 319 318 318 315 314 312 308 305 304 303 301 304 312 319 323 325 325
224 221 223 219 216 221 223 226 230 238 246 261 278 290 301 313 323 325 323 321 318 315 314 315 317 317 318 316 315 314 311 310 310 304 299 297 299 303 310 316 321 323 324
223 223 221 219 223 226 228 234 242 251 260 269 276 285 296 304 311 317 322 322 320 318 316 313 312 313 313 313 312 312 312 311 310 304 298 295 297 303 309 314 319 322 322
222 220 220 224 227 231 235 241 249 257 263 268 272 278 287 296 305 311 316 318 317 317 316 313 314 314 314 312 311 310 311 311 309 304 298 297 297 303 310 314 319 321 322
222 223 226 230 234 237 242 248 254 259 263 269 275 281 286 292 298 303 307 308 309 312 315 316 316 316 313 310 309 308 307 310 309 305 300 297 297 303 310 314 319 320 321
226 229 235 238 241 245 249 254 259 263 269 273 276 281 286 292 296 298 301 304 306 308 309 310 310 312 312 309 307 307 306 308 306 305 299 295 298 305 310 312 317 319 321
235 239 243 247 250 254 257 259 263 267 271 275 279 282 286 288 290 293 296 299 301 303 305 305 305 306 308 307 306 306 304 304 304 303 298 294 296 303 307 312 319 320 322
247 249 251 254 256 260 263 267 270 272 274 278 280 282 284 286 289 291 293 295 297 298 298 300 301 301 302 303 303 300 299 300 300 296 289 287 290 300 308 317 322 322 321